User: anonymous
Location: Unspecified
(0.0000°N, 0.0000°E)
Time: 16:45:48
(UTC+02:00)
Language:

ATLAS V CENTAUR R/B - Orbit

View from above orbital plane
View from above orbital plane
View from above satellite
View from above satellite

Ground track
Ground track

The orbit data is extracted from the following two-line orbital elements,

1 27500U 02038B   14111.63988425  .00019031  00000-0  27421-2 0  8733
2 27500 018.2188 297.3968 6994695 289.3110 034.8792 02.66254652 93306
Epoch (UTC): 21 April 2014 15:21:25
Eccentricity: 0.6994695
inclination: 18.2188°
perigee height: 230 km
apogee height: 30991 km
right ascension of ascending node: 297.3968°
argument of perigee: 289.3110°
revolutions per day: 2.66254652
mean anomaly at epoch: 34.8792°
orbit number at epoch: 9330

The dashed part of the orbit path shows where the satellite is in the earth's shadow,  

DLR